Regional Weather Roundup
Issued by NWS Albany, NY

Home | Current Version | Previous Version | Text Only | Print | Product List | Glossary On
Versions: 1 2 3 4 5 6 7 8 9 10 11 12 13 14 15 16 17 18 19 20 21 22 23 24 25 26 27 28 29 30 31 32 33 34 35 36 37 38 39 40 41 42 43 44 45 46 47 48 49 50
000
ASUS41 KALY 211410
RWRALY

NEW YORK STATE HOURLY WEATHER ROUNDUP
NATIONAL WEATHER SERVICE ALBANY NY
1000 AM EDT THU SEP 21 2017

NOTE: "FAIR" INDICATES FEW OR NO CLOUDS BELOW 12,000 FEET WITH NO
SIGNIFICANT WEATHER AND/OR NO OBSTRUCTIONS TO VISIBILITY.

NYZ032-033-038>043-046>054-057>066-NYZ062>081-082-084-211500-
EAST


CITY           SKY/WX    TMP DP  RH WIND       PRES   REMARKS
ALBANY         PTSUNNY   69  62  78 N12       30.09S
GLENS FALLS    PTSUNNY   68  61  78 NE10      30.10R
POUGHKEEPSIE   PTSUNNY   73  64  73 N10       30.04R
MONTGOMERY     PTSUNNY   73  65  75 NE7       30.06R
WHITE PLAINS   CLOUDY    74  63  68 N13       30.02R
ISLIP          CLOUDY    73  63  70 N17G23    29.97R
NEW YORK CITY  PTSUNNY   75  65  70 N14       30.01R
CENTRAL PARK   CLOUDY    74  64  71 VRB6      30.04S
$$

NYZ005>009-017-018-044>046-055-056-211500-
CENTRAL


CITY           SKY/WX    TMP DP  RH WIND       PRES   REMARKS
FULTON         MOSUNNY   66  64  93 CALM      30.12S
SYRACUSE       CLOUDY    66  64  93 CALM      30.10S
ROME           CLOUDY    63  63 100 CALM      30.12S
ELMIRA         CLOUDY    64  64 100 SW3       30.13S
BINGHAMTON     CLOUDY    62  62 100 NW3       30.14S
MONTICELLO     SUNNY     73  63  70 NW3       30.11S
$$

NYZ026>034-041>043-087-211500-
NORTH


CITY           SKY/WX    TMP DP  RH WIND       PRES   REMARKS
WATERTOWN      SUNNY     68  65  90 NE7       30.11S
FORT DRUM      NOT AVBL
OGDENSBURG     FAIR      69  60  73 NE5       30.14S
MASSENA        SUNNY     67  58  72 NE8       30.16R
SARANAC LAKE   CLOUDY    69  61  75 E7        30.15S
PLATTSBURGH    MOSUNNY   68  55  63 N9        30.13S
$$

NYZ001>004-010>016-019>021-085-211500-
WEST


CITY           SKY/WX    TMP DP  RH WIND       PRES   REMARKS
NIAGARA FALLS  SUNNY     74  63  68 E3        30.12S
BUFFALO        MOSUNNY   70  63  78 E5        30.12S
DUNKIRK        SUNNY     72  64  76 CALM      30.12S
JAMESTOWN      SUNNY     65  63  93 CALM      30.16S
WELLSVILLE     MOSUNNY   63  61  93 CALM      30.18S
ROCHESTER      FOG       64  64 100 SW5       30.13S VSB 1/2
PENN YAN       CLOUDY    66  62  87 CALM      30.14S FOG
$$

             KEY
       WCI = WIND CHILL INDEX
       VSB = VISIBILITY
       HX  = HEAT INDEX
$$



USA.gov is the U.S. government's official web portal to all federal, state and local government web resources and services.